Lander, WY

11:55 PM MST on February 26, 2017 (GMT -0700)
Hunt

Weather History for KLND - June, 2014

Change the Weather History Date:

Tuesday, June 3, 2014

  Actual Average Record
Temperature  
Mean Temperature 68 °F 59 °F  
Max Temperature 82 °F 73 °F 89 °F (1977)
Min Temperature 53 °F 45 °F 25 °F (1951)
Degree Days  
Heating Degree Days 0 7  
Month to date heating degree days 14 22  
Since 1 June heating degree days 14 22  
Since 1 July heating degree days 7598 7644  
Cooling Degree Days 3 1  
Month to date cooling degree days 3 3  
Year to date cooling degree days 21 8  
Since 1 June cooling degree days 3 3  
Growing Degree Days 19 (Base 50)    
Moisture  
Dew Point 30 °F    
Average Humidity 30    
Maximum Humidity 47    
Minimum Humidity 12    
Precipitation  
Precipitation T in 0.07 in 1.54 in (1898)
Month to date precipitation 0.08 0.19  
Year to date precipitation 4.27 6.41  
Snow  
Snow 0.00 in 0.00 in - ()
Month to date snowfall 0.0 0.0  
Since 1 June snowfall 0.0 0.0  
Since 1 July snowfall 75.7 91.3  
Snow Depth 0.00 in    
Sea Level Pressure  
Sea Level Pressure 29.71 in    
Wind  
Wind Speed 12 mph (West)    
Max Wind Speed 38 mph    
Max Gust Speed 52 mph    
Visibility 10 miles    
Events      
T = Trace of Precipitation, MM = Missing Value Source: NWS Daily Summary

Daily Weather History Graph

Daily Weather History Graph

Search for Another Location

Airport or City:

Trip Planner

Search our weather history database for the weather conditions in past years. The results will help you decide how hot, cold, wet, or windy it might be!

Date:

Astronomy

Jun. 03, 2014 Rise Set
Actual Time 5:38 AM MDT 8:48 PM MDT
Civil Twilight 5:03 AM MDT 9:22 PM MDT
Nautical Twilight 4:19 AM MDT 10:07 PM MDT
Astronomical Twilight 3:26 AM MDT 11:00 PM MDT
Moon 11:09 AM MDT (6/3) 12:13 AM MDT (6/3)
Length of Visible Light 16h 19m
Length of Day
15h 10m
Waxing Crescent, 30% of the Moon is Illuminated
Jun 3
Waxing Crescent
Jun 5
First Quarter
Jun 12
Full
Jun 19
Last Quarter
Jun 27
New

Hourly Weather History & Observations

Time (MDT) Temp. Dew Point Humidity Pressure Visibility Wind Dir Wind Speed Gust Speed Precip Events Conditions
12:53 AM 62.1 °F 34.0 °F 35% 29.73 in 10.0 mi SW 8.1 mph - N/A   Clear
1:53 AM 57.9 °F 37.0 °F 46% 29.73 in 10.0 mi Calm Calm - N/A   Clear
2:53 AM 60.1 °F 35.1 °F 39% 29.70 in 10.0 mi WSW 9.2 mph - N/A   Clear
3:53 AM 60.1 °F 34.0 °F 38% 29.68 in 10.0 mi SW 8.1 mph - N/A   Partly Cloudy
4:53 AM 61.0 °F 33.1 °F 35% 29.66 in 10.0 mi North 4.6 mph - N/A   Clear
5:53 AM 64.9 °F 33.1 °F 31% 29.65 in 10.0 mi South 21.9 mph - 0.00 in   Mostly Cloudy
6:53 AM 66.0 °F 30.9 °F 27% 29.66 in 10.0 mi SW 16.1 mph 26.5 mph N/A   Partly Cloudy
7:53 AM 64.9 °F 39.0 °F 39% 29.65 in 10.0 mi ESE 5.8 mph - N/A   Clear
8:53 AM 72.0 °F 36.0 °F 27% 29.62 in 10.0 mi East 4.6 mph - N/A   Clear
9:53 AM 73.9 °F 27.0 °F 18% 29.62 in 10.0 mi WSW 12.7 mph 24.2 mph N/A   Clear
10:53 AM 73.9 °F 27.0 °F 18% 29.64 in 10.0 mi SW 33.4 mph 42.6 mph N/A   Clear
11:13 AM 73.0 °F 26.1 °F 17% 29.83 in 10.0 mi West 11.5 mph 31.1 mph N/A   Clear
11:53 AM 80.1 °F 30.0 °F 16% 29.60 in 10.0 mi Variable 3.5 mph - N/A   Clear
12:17 PM 77.0 °F 25.0 °F 15% 29.84 in 10.0 mi West 24.2 mph 36.8 mph N/A   Partly Cloudy
12:30 PM 71.1 °F 28.0 °F 20% 29.87 in 10.0 mi West 34.5 mph 44.9 mph N/A   Mostly Cloudy
12:53 PM 68.0 °F 30.0 °F 24% 29.69 in 10.0 mi West 32.2 mph 40.3 mph N/A   Partly Cloudy
1:53 PM 78.1 °F 23.0 °F 13% 29.64 in 10.0 mi West 20.7 mph 28.8 mph N/A   Clear
2:53 PM 78.1 °F 26.1 °F 15% 29.62 in 10.0 mi NW 12.7 mph 25.3 mph N/A   Partly Cloudy
3:00 PM 75.9 °F 25.0 °F 15% 29.83 in 10.0 mi NW 17.3 mph 23.0 mph N/A   Partly Cloudy
3:53 PM 81.0 °F 25.0 °F 13% 29.62 in 10.0 mi West 19.6 mph 25.3 mph N/A   Scattered Clouds
4:53 PM 80.1 °F 26.1 °F 14% 29.63 in 10.0 mi WNW 18.4 mph 24.2 mph N/A   Clear
5:53 PM 79.0 °F 26.1 °F 14% 29.63 in 10.0 mi NW 11.5 mph - N/A   Partly Cloudy
6:53 PM 77.0 °F 28.9 °F 17% 29.65 in 10.0 mi NW 15.0 mph - N/A   Clear
7:53 PM 73.0 °F 30.0 °F 20% 29.70 in 10.0 mi WNW 9.2 mph - N/A   Clear
8:53 PM 64.4 °F 32.0 °F 30% 29.92 in 10.0 mi West 8.1 mph - N/A   Clear
9:53 PM 62.1 °F 30.9 °F 31% 29.75 in 10.0 mi WSW 9.2 mph - N/A   Clear
10:00 PM 62.1 °F 30.0 °F 30% 29.95 in 10.0 mi WSW 11.5 mph - N/A   Partly Cloudy
10:53 PM 64.9 °F 30.0 °F 27% 29.76 in 10.0 mi West 5.8 mph - N/A   Partly Cloudy
11:53 PM 60.1 °F 32.0 °F 35% 29.78 in 10.0 mi WSW 9.2 mph - N/A   Clear